User: anonymous   Login
Location: Newark
(40.7119°N, 74.0097°W)
Time: 13:52:24
(UTC+00:00)
Language:

Hubble Space Telescope - Orbit

View from above orbital plane
View from above orbital plane
View from above satellite
View from above satellite

Ground track
Ground track

The orbit data is extracted from the following two-line orbital elements,

1 20580U 90037B   21214.47470211  .00000531  00000-0  21128-4 0  9997
2 20580  28.4698 120.5582 0002687 194.8298 328.2442 15.09695163517970
Epoch (UTC): 02 August 2021 11:23:34
Eccentricity: 0.0002687
inclination: 28.4698°
perigee height: 535 km
apogee height: 539 km
right ascension of ascending node: 120.5582°
argument of perigee: 194.8298°
revolutions per day: 15.09695163
mean anomaly at epoch: 328.2442°
orbit number at epoch: 51797

The dashed part of the orbit path shows where the satellite is in the earth's shadow,  

DLR